Regional Weather Roundup
Issued by NWS

Home | Current Version | Previous Version | Graphics & Text | Print | Product List | Glossary On
Versions: 1 2 3 4 5 6 7 8 9 10 11 12 13 14 15 16 17 18 19 20 21 22 23 24 25 26 27 28 29 30 31 32 33 34 35 36 37 38 39 40 41 42 43 44 45 46 47 48 49 50
000
ASUS43 KOAX 270510
RWRNE

WEATHER ROUNDUP FOR NEBRASKA
NATIONAL WEATHER SERVICE OMAHA NE
1100 PM CST THU FEB 26 2015

NOTES: SATELLITE DATA IS BEING USED TO AUGMENT CLOUD COVER ABOVE
       12000 FEET.
       "FAIR" INDICATES FEW OR NO CLOUDS BELOW 12,000 FEET WITH NO
       SIGNIFICANT WEATHER AND/OR OBSTRUCTIONS TO VISIBILITY.

  * THESE STATIONS DO NOT REPORT WEATHER SUCH AS RAIN...SNOW OR FOG.

NEZ001>004-019>022-054>056-270600-
NEBRASKA PANHANDLE

CITY           SKY/WX    TMP DP  RH WIND       PRES   REMARKS
SCOTTSBLUFF    CLOUDY     8   0  69 SE10      30.30S WCI  -6
ALLIANCE       CLEAR      2  -4  76 E3        30.31R
CHADRON        CLEAR     -5 -11  75 W3        30.37F
KIMBALL        LGT SNOW   8   4  85 SE12      30.19F WCI  -7
SIDNEY         CLOUDY     9   0  67 E10       30.27F WCI  -5
$$

NEZ057>060-069>072-079>082-270600-
SOUTHWEST NEBRASKA

CITY           SKY/WX    TMP DP  RH WIND       PRES   REMARKS
IMPERIAL         N/A      8  -2  63 E7        30.38S WCI  -3
LEXINGTON      CLEAR      4  -5  66 NE7       30.48S WCI  -9
MCCOOK         CLEAR      8  -3  61 NE6       30.45S WCI  -2
OGALLALA       CLEAR      7  -3  63 E6        30.39S WCI  -3
$$

NEZ005>010-023>029-035>040-094-270600-
NORTH CENTRAL NEBRASKA

CITY           SKY/WX    TMP DP  RH WIND       PRES   REMARKS
AINSWORTH      CLEAR      2  -4  75 NW3       30.45S
BROKEN BOW     CLEAR     -5 -10  79 N5        30.46R WCI -16
O`NEILL        CLEAR      0  -6  74 N5        30.50S WCI -10
ORD            CLEAR     -2  -8  76 SW3       30.50R
THEDFORD       CLEAR      2  -4  77 CALM      30.43S
$$

NEZ041-046>049-061>064-073>077-083>087-270600-
SOUTH CENTRAL NEBRASKA

CITY           SKY/WX    TMP DP  RH WIND       PRES   REMARKS
GRAND ISLAND   FAIR       1  -5  75 N5        30.53S WCI  -9
AURORA         CLEAR      2  -5  74 N6        30.52F WCI -10
HASTINGS       CLEAR      2  -6  69 N5        30.51R WCI  -8
HEBRON         CLEAR      5  -2  74 CALM      30.57R
HOLDREGE       CLEAR      1  -9  63 CALM      30.48R
KEARNEY *      CLEAR      3  -6  66 N3        30.51R
YORK             N/A      0  -2  92 NW5       30.53F WCI -10
$$

NEZ011>018-030>034-042>045-270600-
NORTHEAST NEBRASKA

CITY           SKY/WX    TMP DP  RH WIND       PRES   REMARKS
NORFOLK        CLEAR      1  -6  72 CALM      30.54S
ALBION         CLEAR     -3  -8  79 NW3       30.53S
BLAIR          CLEAR      3  -4  72 N8        30.55S WCI -10
COLUMBUS *     CLEAR      0 -15  50 N3        30.56S
FREMONT        CLEAR      1  -4  78 CALM      30.58R
TEKAMAH        CLEAR     -1  -7  75 NW5       30.60R WCI -11
WAYNE          CLEAR     -4  -8  83 NW3       30.57S
$$

NEZ050>053-065>068-078-088>093-270600-
SOUTHEAST NEBRASKA

CITY           SKY/WX    TMP DP  RH WIND       PRES   REMARKS
LINCOLN        CLEAR      0  -5  79 N3        30.59R
OMAHA EPPLEY   CLEAR      3  -2  79 N5        30.59S WCI  -6
BEATRICE       CLEAR      3  -3  78 CALM      30.57R
FALLS CITY     CLEAR      3  -4  72 CALM      30.59S
NEBRASKA CITY  CLEAR      4  -4  69 N3        30.57S
PLATTSMOUTH    CLEAR      3  -3  75 N3        30.56S
$$

NEZ044-045-051>053-067-270600-
OMAHA AREA

CITY           SKY/WX    TMP DP  RH WIND       PRES   REMARKS
OMAHA EPPLEY   CLEAR      3  -2  79 N5        30.59S WCI  -6
BLAIR          CLEAR      3  -4  72 N8        30.55S WCI -10
FREMONT        CLEAR      1  -4  78 CALM      30.58R
MILLARD        CLEAR      5  -2  72 W5        30.59S WCI  -4
OFFUTT AFB     CLEAR      5  -2  71 N5        30.58S WCI  -4
PLATTSMOUTH    CLEAR      3  -3  75 N3        30.56S
WAHOO          FAIR       1  -5  76 NW6       30.58R WCI -11
$$



USA.gov is the U.S. government's official web portal to all federal, state and local government web resources and services.